Theta_e
316 316 312 312 316 315 317 320 318 319 322 318 319 327 331 323 318 328 332 332 340 340 331 332 334 332 333 332 332 334 335 336 337 336 336 335 335 335 334 334 334 333 333 332 330 331 331 331 331 331 332 331 331 329 328 329 328 326 325 324 322 320 319 318 317 317 316 316 315 314 312 310 309 308 307 305 303 301 298 297 297 296 296 296 296 297 298
318 319 315 312 315 314 314 320 321 324 325 322 324 331 329 321 322 333 334 333 338 338 332 333 332 330 331 331 332 334 335 336 336 335 336 335 335 335 334 334 334 333 333 331 330 331 331 330 331 331 331 331 330 329 328 329 328 325 324 322 320 319 317 317 316 316 315 315 314 313 311 309 308 307 305 304 301 299 297 297 296 296 296 296 296 297 298
317 320 321 314 315 316 314 317 323 326 323 319 321 325 325 328 331 331 332 336 337 335 333 334 331 329 331 331 332 334 334 336 336 335 335 335 334 335 333 333 333 332 332 331 330 331 331 330 330 330 330 331 330 329 328 328 326 324 321 320 318 317 317 316 316 315 314 313 312 311 310 308 307 306 304 302 299 297 297 296 296 296 296 296 296 297 297
315 319 324 318 318 320 315 315 321 325 322 318 318 321 327 337 339 334 334 339 341 337 334 333 330 329 331 330 331 333 334 335 336 335 335 335 334 334 333 332 333 333 332 332 331 331 331 330 329 330 330 330 329 329 328 327 325 322 320 318 317 316 316 315 315 314 313 311 310 309 309 308 307 305 304 301 298 297 296 296 296 296 296 296 296 297 298
315 316 322 320 319 318 314 318 324 324 322 320 317 318 325 334 338 339 340 339 340 335 333 335 335 333 332 331 330 333 334 334 335 335 335 335 334 334 334 333 333 333 332 332 331 331 330 329 329 330 330 330 329 328 328 326 324 321 318 317 316 316 315 315 314 313 312 311 310 309 309 308 307 305 302 299 297 296 296 296 296 296 296 296 297 297 298
317 314 319 319 317 316 317 324 329 324 320 322 321 318 320 327 331 336 339 336 334 333 334 338 337 333 332 331 331 333 334 334 335 335 334 334 334 333 333 332 332 332 332 331 330 330 330 329 329 329 329 329 329 328 327 325 322 319 317 316 316 315 315 314 313 313 312 311 310 310 309 308 306 303 301 299 297 295 296 296 296 296 296 296 297 298 298
318 318 323 318 316 319 323 328 329 324 320 323 326 322 322 325 326 332 340 338 335 335 334 333 333 331 331 330 331 333 333 333 334 334 334 334 333 333 332 332 332 332 331 331 331 330 330 329 329 329 329 329 329 328 326 323 320 318 317 316 315 315 314 313 313 312 311 311 310 309 308 306 304 303 302 299 296 295 295 296 295 296 296 296 297 298 298
318 323 326 320 317 321 327 328 326 322 320 321 325 324 322 324 323 328 338 338 333 333 331 330 331 331 331 331 331 332 333 333 334 334 334 334 333 333 333 332 333 332 332 332 331 330 329 329 328 329 328 328 328 327 324 321 319 318 316 315 315 314 313 313 312 311 311 310 309 308 306 305 304 303 302 300 296 295 295 295 295 295 296 296 297 298 298
320 324 322 322 322 321 326 326 320 317 317 319 327 327 322 322 320 323 332 334 331 331 330 330 332 332 331 333 332 332 333 333 333 333 333 334 333 333 333 333 332 332 332 331 330 329 329 328 328 328 328 327 327 325 323 321 318 317 315 314 314 313 313 312 311 311 310 309 308 307 306 305 305 304 302 300 296 295 295 295 295 295 296 297 297 297 298
324 326 322 323 323 320 324 329 324 319 316 319 330 332 327 325 319 319 329 335 331 330 330 330 332 332 333 334 332 332 333 333 333 334 333 333 333 333 333 332 332 331 331 331 330 329 328 327 327 327 326 326 325 324 322 321 318 316 315 314 313 313 312 311 311 310 309 308 308 307 306 306 305 304 302 300 297 295 295 295 295 295 296 297 297 298 298
327 331 325 320 319 319 323 328 326 319 313 316 325 327 329 329 319 316 327 333 329 329 331 331 332 333 336 336 332 331 333 333 333 333 333 333 333 332 332 332 332 332 331 331 330 329 326 325 325 325 324 324 324 322 321 320 318 316 315 314 314 313 312 311 311 309 308 308 308 307 307 306 305 303 301 299 297 294 295 295 295 295 296 296 297 298 298
325 330 323 317 319 320 321 324 324 316 312 315 319 321 327 328 319 317 325 329 327 328 330 330 331 334 336 335 331 330 333 333 333 333 333 333 332 332 332 332 331 331 331 330 329 329 326 324 324 325 324 323 323 322 320 319 318 316 315 314 314 313 312 311 310 309 307 307 307 307 307 306 304 302 300 299 296 294 294 295 295 295 296 296 297 297 297
324 326 319 313 319 322 320 322 320 314 313 319 324 326 327 324 319 320 325 326 327 328 330 331 331 331 330 328 327 330 332 332 333 333 332 332 332 332 332 331 331 331 330 330 329 329 328 325 323 324 324 323 322 321 319 319 318 317 315 314 313 312 311 310 309 307 306 306 306 306 305 304 303 301 300 298 296 294 294 295 295 295 295 296 296 296 296
317 323 322 316 318 320 319 321 319 313 317 326 327 325 323 322 323 323 324 326 328 329 329 330 330 328 327 326 325 328 331 332 333 332 332 332 332 331 331 331 331 330 329 328 327 327 327 326 324 324 324 324 322 320 319 319 318 316 314 313 313 311 310 310 308 307 306 305 304 304 303 303 302 300 299 297 296 294 294 295 295 295 295 295 295 295 295
315 323 323 317 319 321 319 319 319 317 321 327 325 322 321 323 325 323 322 326 329 328 329 330 329 328 328 326 325 327 331 332 332 332 332 332 331 331 331 330 331 330 329 327 326 325 325 325 324 323 322 322 321 320 319 318 317 316 314 313 312 311 310 309 307 306 305 305 303 303 303 303 301 299 298 297 296 294 294 294 294 294 295 294 294 295 294
318 322 321 316 319 322 319 320 322 321 321 323 322 322 323 323 324 325 324 326 328 329 329 329 328 328 327 326 325 327 330 332 332 332 332 332 332 331 330 330 330 330 329 328 326 325 324 324 323 322 321 322 321 320 319 318 317 315 314 313 312 311 310 309 307 306 304 303 302 302 302 302 300 298 296 296 295 294 294 294 294 294 294 294 294 294 294
316 318 323 321 318 318 319 321 323 323 322 322 323 323 324 323 323 324 325 325 327 329 329 329 329 329 327 326 325 327 330 332 331 332 332 331 331 331 330 330 329 329 328 327 325 324 323 323 323 322 322 322 321 320 318 317 316 315 314 312 312 311 310 308 306 305 304 303 302 302 302 301 299 297 295 295 295 294 294 294 294 294 294 294 294 294 294
318 317 320 320 317 318 321 321 321 322 322 322 323 323 323 324 323 323 323 324 325 327 328 329 330 329 328 327 325 326 329 331 331 331 332 331 331 331 330 329 329 328 327 326 325 324 323 323 322 321 321 322 321 319 318 317 316 314 313 312 312 310 308 306 305 304 303 303 303 303 302 300 298 296 295 294 294 294 294 294 294 294 294 294 293 293 293
323 323 322 320 318 319 320 320 320 322 322 322 323 323 323 323 323 323 322 322 324 325 326 328 329 330 329 327 326 327 329 330 330 331 331 331 331 330 330 329 328 328 327 325 325 324 323 323 322 320 319 320 319 318 318 317 315 313 312 312 311 309 307 305 305 304 304 304 304 303 302 300 297 296 295 294 294 294 294 294 294 294 294 294 293 293 294
324 321 318 318 317 318 320 321 321 321 321 322 323 323 323 322 323 323 323 323 324 325 324 325 327 329 329 327 326 327 328 329 330 330 330 331 330 329 329 329 328 328 327 326 325 324 323 322 321 319 319 319 318 317 318 317 315 313 312 311 310 308 306 305 305 305 305 305 304 303 302 300 297 295 295 294 294 294 294 294 294 294 294 294 294 294 294
324 320 316 316 317 318 320 321 322 321 322 321 321 322 323 323 323 323 323 323 324 324 325 325 324 326 328 328 327 327 327 328 329 329 330 330 329 329 329 328 327 327 326 325 324 323 322 321 320 319 319 318 318 317 317 316 314 313 312 310 309 307 306 306 305 305 305 305 304 303 302 299 297 296 295 294 294 294 294 294 294 294 295 295 294 294 294
328 327 321 319 321 323 321 320 322 323 322 321 321 321 322 322 322 322 322 323 324 324 325 325 324 324 326 326 326 327 327 327 328 329 329 329 328 328 327 327 326 325 325 325 324 322 321 321 320 319 318 317 317 316 316 315 314 313 311 310 308 307 306 306 306 305 305 304 303 302 301 299 298 297 297 297 296 295 295 295 296 296 297 297 297 296 295
326 323 319 317 320 323 320 319 322 322 321 322 322 321 322 322 321 321 321 322 323 324 324 324 325 324 324 325 326 326 326 327 327 327 327 327 327 327 326 326 325 324 323 323 323 322 321 321 320 318 317 316 316 316 315 314 313 312 311 309 308 307 306 306 306 305 305 304 303 302 300 299 298 298 299 298 297 296 297 298 298 298 299 299 299 298 297
319 318 318 318 320 320 320 321 322 321 321 322 322 322 322 322 321 321 322 323 323 323 323 324 324 324 324 325 325 326 325 325 324 323 323 324 324 325 325 325 324 324 322 321 321 321 321 320 319 318 317 316 315 314 314 313 312 311 310 309 308 307 306 306 306 305 304 304 303 301 300 299 298 298 299 299 298 298 300 300 300 300 300 300 300 299 299
318 319 320 321 321 321 321 321 321 321 321 322 321 322 322 321 321 321 322 322 323 323 324 324 324 324 324 324 324 325 325 324 324 324 324 324 324 324 324 324 324 323 322 321 320 320 320 320 319 317 316 315 314 314 313 313 311 310 309 309 308 307 306 306 305 305 304 304 303 301 300 299 299 299 299 298 298 299 301 301 301 301 301 300 300 300 299
318 319 320 321 321 321 321 321 320 320 321 321 321 321 321 320 321 321 321 322 323 323 324 324 324 324 324 323 323 324 324 324 324 324 324 324 324 324 324 323 323 322 322 321 320 320 320 319 318 317 316 315 315 314 313 312 310 310 308 307 307 307 306 306 305 305 304 304 302 301 299 298 298 298 298 298 299 300 300 300 300 300 300 300 300 299 299
318 319 320 320 320 320 320 320 320 320 320 320 321 321 320 320 320 321 321 322 322 322 323 324 324 324 324 323 323 323 323 323 323 323 323 323 323 323 323 323 323 323 322 321 320 320 319 318 317 316 315 314 313 313 311 310 310 309 308 306 306 306 306 306 305 305 304 304 302 299 298 298 297 298 298 299 300 300 299 299 299 300 299 299 299 298 297
318 319 320 319 319 319 319 319 319 320 320 320 320 320 320 320 320 320 321 321 321 322 322 322 323 323 323 323 323 323 322 322 322 323 323 323 322 322 322 322 322 322 321 320 319 319 319 318 316 315 313 312 312 311 311 311 310 309 307 306 305 305 306 305 305 305 305 303 300 297 297 297 297 298 299 300 300 299 299 299 299 299 299 299 298 297 295
317 317 319 319 318 318 318 319 319 319 319 319 319 319 319 319 319 320 320 321 321 322 321 322 322 322 322 323 323 323 322 322 322 322 322 322 322 321 321 321 320 320 319 318 317 317 317 316 314 312 311 311 311 311 311 310 309 307 306 305 305 305 305 305 305 305 304 302 298 297 296 297 297 299 300 300 299 299 300 300 300 299 299 298 297 295 293
316 316 317 317 317 318 318 318 318 318 318 318 319 319 319 319 319 319 319 320 321 321 321 321 322 322 322 322 322 322 322 322 321 322 321 321 321 321 320 320 319 317 315 315 315 314 315 314 312 311 311 310 310 310 309 309 307 306 305 305 304 304 304 304 304 304 302 299 298 297 297 297 298 299 299 299 300 300 300 300 299 299 299 298 296 294 293
315 315 316 316 316 317 318 318 318 318 318 318 318 318 318 318 318 318 319 319 319 320 320 320 321 321 321 321 321 321 321 321 320 320 320 320 320 319 318 318 318 316 315 314 313 313 313 311 310 310 310 310 310 310 309 307 306 305 304 303 304 304 304 303 303 302 299 298 297 297 298 299 299 300 299 300 300 300 300 300 300 299 298 296 294 293 293
314 314 315 316 316 317 317 317 317 318 318 318 318 318 318 318 318 318 318 318 319 319 319 319 319 320 320 321 320 321 320 320 320 319 319 319 319 318 317 317 317 317 316 315 314 314 313 311 310 310 309 309 309 309 308 307 305 304 303 303 303 303 303 302 301 300 298 297 297 297 298 299 300 300 300 300 300 300 300 299 298 296 295 294 293 293 294
314 314 315 315 316 316 316 316 317 317 317 317 317 317 317 318 318 318 318 318 318 318 318 317 317 319 320 320 320 320 319 319 318 318 318 318 318 318 317 316 315 315 315 314 314 313 312 311 310 310 308 308 308 308 308 306 305 304 303 302 302 302 302 301 300 299 298 298 297 298 299 300 300 300 300 300 301 300 298 296 294 293 294 294 294 295 296
314 313 314 314 314 315 316 316 316 316 316 317 317 317 317 317 317 317 317 317 318 318 317 316 316 318 319 319 319 319 319 318 318 317 317 317 316 316 315 314 313 313 312 312 311 310 310 310 310 309 308 307 307 307 307 306 305 303 302 301 301 301 302 301 300 299 298 297 298 299 300 300 300 300 300 301 300 297 295 294 293 294 295 297 297 298 298
313 312 312 313 313 313 314 314 314 315 315 316 316 316 316 316 316 316 316 316 316 317 317 316 316 316 317 318 318 318 318 317 317 316 316 316 315 315 314 313 312 311 310 310 309 309 309 309 309 308 308 307 307 307 306 305 303 301 300 300 301 301 301 301 300 298 298 298 299 300 300 300 300 301 301 299 297 295 295 296 297 297 298 299 299 299 299
312 312 311 311 311 311 312 312 313 313 314 314 315 315 316 316 315 315 315 315 315 315 315 315 315 315 315 315 316 316 317 316 316 316 315 315 314 314 313 312 311 310 309 308 308 308 308 308 308 307 307 307 306 306 306 304 302 301 301 301 301 301 300 300 299 298 298 299 300 300 301 301 301 300 298 297 296 297 299 300 299 299 300 300 300 300 300
311 310 310 310 310 310 310 311 311 312 312 313 313 314 314 314 314 314 314 314 314 313 313 313 313 313 312 313 314 315 316 316 315 315 314 314 313 312 311 310 310 309 309 308 308 307 307 307 307 307 306 305 305 305 304 303 302 301 301 301 301 300 300 299 299 299 299 300 301 301 301 301 299 297 297 298 300 301 301 300 300 300 300 300 300 300 300
310 310 309 310 310 310 309 309 309 310 311 311 312 312 312 313 313 313 312 312 312 311 311 311 311 311 311 312 313 314 314 314 314 314 313 312 312 311 310 310 309 309 309 309 308 307 306 306 305 305 305 305 305 304 303 302 302 301 301 300 300 300 300 299 299 299 300 301 301 301 300 299 298 299 300 301 302 302 301 301 301 300 300 300 300 300 300
309 309 309 308 309 309 309 308 308 309 309 310 310 310 311 310 310 310 310 310 310 310 310 310 311 311 311 312 313 313 313 313 313 312 312 311 311 310 310 309 309 309 309 308 308 307 306 305 305 305 305 305 304 303 302 302 301 300 300 300 300 300 300 300 300 300 300 301 301 301 300 300 300 301 302 302 301 301 301 301 300 300 300 300 300 300 300
309 309 309 308 308 309 309 309 308 308 309 309 309 309 309 310 309 309 310 310 310 310 310 310 311 311 311 312 312 312 312 312 312 312 311 311 310 310 309 309 308 308 308 307 307 307 306 305 305 305 304 304 303 302 301 301 300 300 300 300 300 300 300 300 300 300 301 301 301 301 301 302 302 302 302 301 302 302 301 300 300 300 300 300 300 300 300
308 309 309 309 309 308 308 309 309 309 309 309 309 309 309 309 309 309 309 309 310 310 310 310 310 311 311 311 312 312 312 312 312 311 311 310 310 310 309 308 308 307 307 306 306 306 305 305 305 305 304 303 302 301 301 300 300 300 300 300 300 300 300 300 300 300 301 301 301 301 302 302 302 302 302 301 301 301 301 301 301 301 301 301 300 300 300
308 309 309 309 308 307 307 308 309 309 309 309 309 309 309 309 309 309 309 309 309 309 309 310 310 310 310 311 311 311 311 311 311 310 310 309 309 309 309 308 307 306 306 306 305 305 305 305 305 305 304 303 302 301 301 300 299 300 300 300 300 301 301 300 300 300 301 302 302 302 302 302 302 302 302 302 302 302 301 301 301 301 301 301 301 300 300
308 309 309 308 307 307 308 308 309 309 308 309 309 309 309 309 308 308 308 308 309 309 309 309 309 310 310 310 310 310 310 310 309 309 309 308 308 308 308 308 307 306 306 305 305 305 304 304 304 303 303 303 302 301 301 301 300 300 300 300 300 300 301 301 301 301 301 301 302 302 302 302 302 302 301 301 301 301 301 301 301 301 301 300 300 300 300
309 309 308 307 307 308 308 309 309 309 308 309 309 309 309 309 308 308 308 308 308 308 308 308 309 309 309 309 309 309 310 309 309 309 308 308 307 307 307 307 307 306 305 304 304 304 304 303 303 302 302 302 302 301 301 301 301 300 300 300 300 301 302 302 301 301 301 301 302 302 302 302 302 301 301 300 300 300 301 301 301 300 300 300 300 300 299
308 308 308 307 307 308 309 309 309 308 308 308 308 308 309 308 308 308 308 308 307 307 307 308 308 308 308 308 308 308 309 309 309 308 308 308 308 307 307 306 306 305 304 303 303 303 303 302 302 302 302 302 301 301 301 301 301 301 301 301 301 301 301 301 301 301 301 301 301 302 302 302 302 301 301 300 300 300 300 300 300 300 300 300 300 300 299
308 308 308 307 307 307 308 309 309 308 308 307 308 308 308 308 308 308 308 307 307 307 307 307 307 308 308 308 308 307 307 307 307 307 307 307 307 307 306 306 305 305 304 303 303 303 303 303 302 302 302 301 301 301 301 301 301 301 301 301 301 301 301 301 301 300 301 301 301 301 301 301 302 301 301 300 300 300 300 300 300 300 300 300 300 300 300
307 307 308 308 307 306 307 309 309 308 307 307 307 308 308 308 308 308 308 307 307 307 307 307 307 307 308 307 307 307 307 307 307 307 307 307 307 306 306 306 305 305 304 303 303 303 303 303 303 302 301 301 301 301 301 301 301 301 301 301 301 301 301 301 300 300 300 301 301 301 301 301 301 301 301 300 300 300 300 300 300 300 300 300 300 300 300
307 307 308 308 308 308 308 308 308 307 307 307 307 307 307 307 308 308 307 307 307 307 307 307 307 307 307 307 307 307 307 307 307 307 307 306 306 306 306 305 305 305 304 304 303 303 303 303 302 302 301 301 301 301 301 301 301 301 301 301 301 301 301 301 301 300 300 300 300 301 301 301 301 301 300 300 300 300 300 301 301 301 300 300 300 300 300
306 307 308 307 307 307 308 308 307 306 306 307 307 307 307 307 307 307 307 307 307 307 307 307 307 307 307 307 306 307 307 307 307 307 307 307 306 306 305 305 305 304 304 304 303 303 302 302 302 302 302 302 302 302 302 302 302 301 301 301 301 301 301 301 301 300 300 300 300 301 301 301 301 301 301 301 301 301 301 301 301 301 301 300 300 300 300
306 307 307 306 306 306 307 307 306 306 306 306 307 307 307 306 306 307 307 307 307 307 307 307 307 307 306 306 306 306 306 306 307 307 306 306 306 306 306 305 305 304 304 303 303 303 302 302 302 302 302 302 302 302 302 302 302 302 301 301 301 301 301 301 301 300 300 301 301 301 301 301 301 301 301 301 301 301 301 301 301 300 300 300 300 300 300
306 307 307 307 306 306 307 307 307 307 307 306 306 307 307 306 306 307 307 307 307 307 307 307 307 307 306 306 306 306 306 306 306 306 306 306 306 306 305 305 305 304 304 303 303 303 303 302 302 302 302 302 302 302 302 301 301 301 301 301 301 301 301 301 301 301 300 300 300 300 300 300 301 301 301 301 301 301 301 300 300 300 300 300 300 300 300
306 307 307 306 306 306 307 308 308 308 307 306 306 307 307 306 306 306 306 306 306 306 306 306 306 307 306 306 306 306 306 306 306 306 306 306 305 305 305 304 304 303 303 303 302 302 302 302 302 302 302 302 301 301 300 300 301 301 301 301 301 301 301 301 300 300 300 300 300 300 300 300 301 301 301 301 301 300 300 300 300 300 300 300 300 300 300
Wind_Speed
4 4 7 8 8 7 7 8 7 7 8 8 7 6 6 6 6 5 7 8 8 8 9 10 10 9 11 13 18 24 27 29 31 31 32 33 32 32 35 38 38 39 38 37 38 38 37 36 37 37 37 36 32 28 28 29 28 26 24 23 22 22 22 22 21 21 20 20 19 19 20 21 20 18 15 13 11 11 11 10 10 10 10 10 10 11 12
3 3 5 8 8 7 5 5 7 8 8 7 5 5 5 5 4 4 7 8 6 6 6 6 3 4 10 15 19 23 26 29 31 32 33 35 35 35 37 39 40 39 38 38 39 39 37 36 38 39 38 36 33 29 29 29 28 25 24 23 23 23 23 21 21 21 21 21 20 21 22 21 19 17 15 13 12 11 11 10 10 11 11 11 11 12 13
5 6 5 7 8 8 6 3 4 7 7 4 3 4 5 4 4 3 6 5 4 5 3 3 5 10 14 14 17 21 24 28 30 29 31 34 35 36 37 39 40 40 39 39 40 40 38 38 39 40 38 36 33 30 29 29 27 25 24 23 24 24 23 21 21 21 21 22 23 23 22 21 19 16 14 13 12 11 11 11 11 12 12 12 12 13 13
3 6 5 7 7 9 8 5 3 7 6 3 2 3 5 5 6 7 7 3 4 4 3 6 7 11 13 12 15 20 22 26 29 29 29 32 35 36 37 39 41 42 42 42 43 43 41 40 40 40 38 36 34 30 29 28 27 25 24 24 24 23 22 21 20 21 22 24 24 23 22 20 18 15 13 12 12 12 12 12 12 13 13 13 13 14 14
3 5 2 7 8 8 3 2 4 6 4 3 2 2 3 6 8 7 4 4 5 3 5 6 5 6 8 12 20 25 26 27 28 28 30 33 36 39 41 43 45 45 44 44 45 44 42 41 41 39 38 36 34 31 29 28 27 25 25 25 24 23 22 20 21 22 24 25 24 23 21 19 17 15 13 13 13 13 13 13 13 14 14 14 14 14 15
2 5 1 7 7 4 3 6 5 6 3 5 6 2 2 3 3 4 4 4 6 7 7 8 8 9 11 15 22 28 32 32 30 28 30 33 36 39 41 43 44 43 43 43 43 42 41 41 40 39 37 34 31 29 28 28 27 26 26 26 25 24 22 21 22 23 24 25 24 22 20 19 17 16 14 14 14 14 14 14 14 14 14 15 15 15 16
3 2 2 7 5 5 6 6 4 4 5 7 10 5 3 3 2 2 5 7 10 11 9 8 8 9 10 10 13 19 28 35 35 33 32 33 36 38 39 40 42 43 44 44 44 43 42 42 41 40 38 35 31 29 29 28 27 26 27 27 26 24 23 23 24 25 26 25 24 23 21 20 19 17 15 14 15 15 14 14 14 14 15 15 16 17 18
2 2 4 5 5 5 5 5 2 2 2 5 8 6 6 4 3 0 3 6 9 8 6 7 8 8 8 7 8 14 22 30 35 36 37 38 39 42 44 45 47 47 46 44 45 45 44 44 43 41 38 35 33 31 30 28 26 26 28 28 26 25 24 24 25 26 26 25 25 24 23 22 20 17 15 14 15 16 16 15 15 15 15 16 17 19 19
3 4 2 1 1 4 4 3 1 1 2 1 5 3 3 4 1 2 2 3 5 7 9 11 12 12 10 6 4 13 21 27 32 35 38 40 42 43 45 45 45 45 43 42 43 44 44 44 43 41 38 36 34 33 31 28 27 28 29 28 27 26 25 24 26 27 26 25 25 25 24 22 20 18 15 15 16 16 16 16 16 16 16 17 18 18 18
2 5 3 3 4 2 4 5 5 5 4 3 5 6 2 5 1 3 4 5 7 7 10 14 16 12 7 1 5 14 22 26 30 32 34 37 39 41 42 42 42 42 41 42 43 43 44 43 42 40 38 37 36 34 31 29 28 29 29 28 27 26 23 23 26 26 26 26 26 25 24 22 21 18 16 15 16 17 17 16 17 17 18 19 19 17 16
2 5 4 2 3 1 5 8 9 7 3 2 4 6 2 6 4 3 6 8 7 9 13 17 15 9 3 4 10 19 25 28 31 33 33 35 37 38 41 42 42 43 43 43 43 42 41 41 40 39 37 36 36 34 32 30 30 30 30 28 24 21 21 24 26 26 26 25 25 25 24 23 21 18 16 16 17 17 17 17 17 18 19 19 19 18 15
2 4 3 1 2 1 4 7 8 6 2 4 6 3 5 8 7 4 7 12 10 13 18 17 11 7 7 9 17 25 29 29 31 33 34 36 38 39 40 41 41 43 44 44 44 43 42 41 40 39 37 35 34 33 32 32 31 30 29 26 22 22 24 26 28 28 27 26 25 25 24 23 21 18 16 17 18 19 18 18 17 18 19 19 19 18 16
3 4 3 0 2 3 4 7 9 8 4 6 5 4 7 6 9 6 7 16 16 18 21 17 12 15 15 10 15 25 31 31 32 34 34 36 38 38 39 40 41 42 43 43 44 43 42 41 39 38 36 34 34 34 33 32 31 30 28 25 25 27 28 28 29 29 28 26 23 23 23 23 21 19 17 18 19 20 19 19 19 19 19 19 19 18 17
3 3 4 1 2 3 4 7 9 6 3 2 3 5 4 2 7 7 5 17 21 22 26 25 19 16 14 5 6 19 32 35 34 35 35 36 37 38 39 40 41 42 43 42 41 41 41 40 38 37 36 35 35 34 33 32 31 30 28 26 27 28 27 27 28 28 27 26 23 22 23 23 21 20 19 18 19 20 20 20 20 20 20 19 19 18 18
2 3 3 3 1 4 5 7 5 4 2 4 5 4 3 3 5 5 3 17 25 25 28 28 18 10 10 7 5 15 32 36 35 36 37 37 38 39 40 41 42 42 42 41 40 40 39 39 38 38 37 35 35 34 34 33 32 30 28 27 27 27 27 28 28 27 27 25 22 22 23 23 21 21 20 20 20 20 20 20 20 20 20 19 19 18 18
3 2 0 2 5 4 6 3 1 1 2 4 6 6 6 6 8 7 2 10 21 26 28 29 21 11 9 9 7 17 32 36 35 36 37 37 38 39 39 40 41 41 41 41 40 40 39 39 38 38 36 34 34 34 35 34 32 30 29 28 28 27 27 28 28 27 26 24 21 21 23 23 22 22 22 22 22 21 21 21 21 20 20 19 18 18 17
2 3 4 4 4 4 4 5 6 7 7 7 7 7 8 9 10 8 6 1 11 21 26 28 26 19 12 9 9 18 31 36 37 37 37 37 37 37 36 37 38 39 40 41 40 40 39 38 38 37 36 35 35 36 36 34 32 31 31 30 29 28 28 28 28 27 25 23 22 21 21 22 23 23 24 24 24 23 22 21 21 20 20 19 17 16 16
1 0 1 1 2 2 4 6 8 10 10 8 8 10 10 9 8 8 7 5 4 12 20 26 28 26 20 13 11 19 30 35 37 37 37 36 36 35 36 36 37 38 39 39 40 40 39 38 39 39 38 37 36 36 35 33 32 32 32 31 30 29 29 29 29 27 25 25 23 21 21 22 23 24 24 25 25 24 23 22 21 20 19 19 17 16 16
2 1 2 3 3 4 4 6 8 9 9 9 8 8 8 7 6 6 4 3 4 6 13 22 28 31 27 20 16 21 30 35 36 37 37 37 36 36 37 37 37 38 39 40 40 40 40 40 40 40 38 37 37 36 33 32 33 33 32 31 30 29 30 30 29 28 27 27 25 23 22 23 24 24 24 24 25 25 25 24 22 21 20 19 19 18 16
1 3 5 5 3 3 3 6 7 7 9 8 6 6 6 5 4 3 1 2 4 6 9 14 23 31 31 26 23 24 29 34 36 37 37 37 37 36 37 37 37 38 39 41 41 41 40 40 40 39 38 38 38 36 34 33 33 33 31 30 30 30 30 30 29 29 28 27 26 24 24 24 25 26 25 25 25 25 24 24 23 22 21 20 19 18 16
2 2 4 3 1 2 2 5 5 5 6 6 5 5 4 3 3 2 2 2 6 8 9 9 16 26 31 29 27 26 29 33 35 36 37 38 37 37 37 37 37 38 39 40 40 40 39 39 38 38 39 40 39 37 34 33 33 32 31 30 30 31 31 30 30 30 29 27 26 25 25 26 26 26 25 25 24 23 22 22 20 19 18 18 17 16 15
0 3 4 2 2 2 2 3 4 3 3 4 4 4 2 2 3 4 4 4 6 9 9 8 9 18 26 28 27 27 28 32 35 37 38 38 37 37 36 36 36 37 38 39 39 38 37 37 37 39 41 41 39 37 35 33 32 32 31 31 31 32 31 31 32 31 30 28 26 26 27 28 28 27 26 24 23 23 22 21 19 17 16 14 12 12 12
3 4 3 1 1 1 1 1 2 2 3 4 4 3 2 2 4 5 5 3 4 6 8 9 8 12 19 25 27 27 29 32 33 35 36 37 37 37 36 35 36 37 37 37 37 37 36 36 38 39 40 40 39 37 35 34 32 31 31 32 33 33 32 33 33 32 30 29 28 28 29 29 29 28 27 25 24 23 22 20 19 17 15 12 9 8 8
2 4 3 2 3 3 2 2 2 2 3 4 3 2 2 4 5 5 4 3 3 4 7 8 8 8 12 19 24 26 28 29 29 29 29 30 32 34 34 35 35 36 37 37 36 36 36 36 38 39 39 39 39 37 35 33 31 31 31 32 33 33 33 33 33 32 30 29 29 29 30 30 30 29 27 26 26 25 23 20 18 17 15 13 11 9 8
4 5 3 1 2 1 1 1 1 2 3 3 3 3 3 4 4 3 3 4 3 2 5 7 7 6 8 13 19 23 25 26 27 25 24 26 29 31 32 34 34 35 36 35 35 35 35 36 37 38 39 39 38 36 34 33 32 32 32 32 32 32 33 34 33 32 31 30 30 31 32 32 32 30 28 28 28 26 24 22 19 18 17 15 13 12 11
5 4 2 1 1 2 1 1 1 1 2 1 1 2 2 3 3 1 2 3 3 2 3 5 6 6 7 9 12 16 20 22 23 25 26 29 31 32 32 32 33 33 34 34 34 35 35 36 37 38 39 39 37 35 35 35 33 31 30 30 30 31 32 33 33 32 31 30 30 31 32 32 31 30 29 29 28 27 25 24 22 21 20 18 16 14 14
4 2 1 1 1 2 1 1 1 1 0 0 0 1 2 3 2 1 1 2 3 3 2 2 4 5 7 8 9 11 14 17 20 24 27 29 29 30 30 30 31 31 32 33 34 35 35 35 37 38 39 39 37 36 36 34 31 29 28 29 31 31 31 31 31 31 31 30 30 31 32 32 30 30 30 30 28 26 25 24 23 22 20 18 17 16 15
2 1 1 2 1 1 1 1 0 2 3 3 1 1 2 2 2 1 0 0 1 2 2 2 0 2 4 6 7 8 10 13 15 18 22 24 26 27 28 28 29 31 32 34 35 35 35 35 36 37 38 37 37 37 35 31 28 28 28 30 32 33 32 31 31 30 30 30 30 31 31 31 30 31 31 29 27 25 23 21 20 19 18 17 17 16 16
1 1 2 2 1 1 1 2 4 5 5 4 3 2 2 1 1 1 0 0 1 1 1 2 3 2 2 3 6 7 9 9 10 11 15 19 21 23 25 27 29 31 32 34 36 36 35 35 36 37 37 37 37 35 32 28 27 28 28 28 31 32 32 31 31 31 30 30 30 31 30 30 31 31 30 27 25 23 21 20 19 18 17 17 17 17 16
2 1 1 2 2 2 2 4 7 7 6 5 4 2 2 1 1 1 0 1 1 1 1 2 3 3 3 3 5 6 7 7 7 8 11 13 14 16 20 25 29 31 32 33 35 35 35 35 35 36 36 36 35 32 29 28 28 29 27 27 29 31 30 30 30 31 30 30 30 31 30 30 31 30 28 25 23 21 21 20 20 19 18 18 18 18 16
2 2 2 2 3 3 4 6 7 7 7 6 4 3 1 0 1 0 1 1 1 1 1 1 2 4 5 5 6 7 8 9 9 9 11 13 13 14 16 21 26 30 31 32 33 33 33 33 33 33 34 33 32 30 29 28 28 28 28 28 29 30 29 29 29 29 29 29 30 30 30 31 30 28 26 24 22 22 21 21 20 19 18 18 18 17 15
2 0 1 2 3 4 6 6 6 7 7 6 4 3 2 0 1 1 1 1 1 2 2 1 0 3 6 7 8 8 8 9 9 9 11 13 16 18 20 21 24 28 30 31 32 33 33 32 32 31 31 31 29 28 28 28 27 27 28 28 28 28 28 28 28 28 28 28 29 30 31 30 29 26 25 23 22 22 21 21 21 20 19 19 18 16 15
4 3 4 4 5 6 7 6 5 5 5 5 4 3 2 1 0 1 1 1 3 3 3 3 2 4 7 9 10 9 9 10 10 11 12 13 16 19 21 22 23 26 29 30 31 32 33 32 32 31 30 28 26 26 27 27 26 26 27 25 25 26 27 26 26 26 27 28 29 30 30 29 27 25 24 23 22 22 22 22 21 21 20 19 17 15 14
4 4 4 4 3 4 5 4 3 3 3 3 3 3 2 2 1 1 2 2 3 4 3 1 2 5 8 10 11 11 11 12 12 12 12 13 14 16 19 21 22 24 26 28 30 31 31 31 31 30 28 25 24 25 26 26 26 26 25 23 23 24 25 25 25 25 27 28 29 28 27 27 26 25 24 23 23 23 22 21 21 21 19 18 16 15 15
3 4 5 5 4 4 3 3 2 2 1 1 1 2 3 3 3 2 2 2 2 3 4 3 1 3 6 9 11 11 12 12 12 10 10 11 12 14 17 20 22 23 25 27 28 29 29 29 29 27 24 23 23 24 25 25 24 24 23 22 22 22 23 24 24 25 26 28 27 26 26 25 24 23 23 23 23 22 21 20 19 19 18 16 15 15 15
3 3 4 4 3 3 3 2 2 2 2 1 1 2 3 3 3 3 2 2 2 2 3 3 2 1 2 6 9 10 11 11 11 10 10 10 11 14 17 20 22 24 25 26 26 27 27 27 25 23 21 21 22 24 23 23 23 24 23 22 22 22 22 23 24 25 26 26 25 24 23 22 22 22 23 23 23 21 20 19 18 17 16 15 15 14 14
4 3 3 3 3 3 3 3 3 2 2 1 2 2 2 3 3 2 2 2 2 3 3 2 2 3 6 8 9 10 11 11 11 11 11 11 12 15 17 20 22 24 25 26 26 25 25 24 22 20 21 22 22 22 21 21 23 24 23 22 22 22 22 23 24 26 26 25 22 20 20 21 21 21 22 22 21 20 19 18 17 17 16 15 14 13 13
3 3 3 3 3 3 3 4 4 4 3 2 2 2 2 2 2 1 0 0 1 2 4 5 7 9 10 10 11 11 12 11 11 11 11 12 13 15 17 19 22 24 25 25 25 24 23 22 21 21 21 21 20 20 20 20 22 23 23 22 22 23 22 21 23 26 26 23 20 19 19 20 21 22 21 20 20 19 17 16 17 17 17 16 15 15 14
4 3 3 3 3 4 4 5 5 4 4 3 1 1 2 2 2 2 3 5 6 6 7 9 10 11 10 9 11 11 11 10 10 10 10 11 12 13 16 18 20 21 22 22 21 21 21 21 21 21 20 18 17 18 19 20 20 22 22 22 23 24 22 20 23 25 25 22 20 19 20 20 21 20 19 19 18 17 16 15 16 16 17 17 17 17 17
4 3 3 3 4 4 4 3 4 5 4 4 3 2 1 2 3 3 5 7 8 8 8 8 8 7 6 7 7 8 8 8 8 8 8 9 11 13 15 17 18 18 18 18 19 19 20 21 21 21 20 18 18 19 20 20 20 21 21 22 24 24 21 21 24 26 24 21 20 20 20 21 21 20 19 19 18 17 16 15 15 15 16 16 17 18 18
5 3 2 2 4 4 4 4 5 5 5 5 5 4 4 4 4 4 4 4 5 6 6 4 2 1 2 3 4 5 6 6 6 6 7 9 10 12 14 15 16 16 16 17 17 19 21 22 22 22 21 20 21 22 21 20 20 19 19 22 23 21 18 18 22 24 23 21 20 21 21 21 20 20 20 20 19 19 18 17 17 17 17 17 17 18 18
5 3 1 3 5 5 4 5 6 6 5 5 5 6 6 6 5 4 4 2 2 2 2 0 2 3 3 3 4 4 5 5 5 6 8 9 10 11 13 14 15 16 16 17 18 20 21 22 21 21 21 21 22 23 21 20 20 19 19 20 21 18 15 15 18 21 22 21 20 20 21 20 19 20 21 21 21 21 20 19 18 18 19 19 19 19 19
2 1 2 5 6 5 3 5 6 6 6 6 6 7 7 7 5 4 3 2 1 1 1 2 3 4 4 3 3 4 5 6 6 7 8 10 11 12 12 13 14 15 16 17 18 19 19 18 18 18 18 19 21 22 20 19 19 20 21 21 20 18 16 15 16 19 22 22 21 20 20 20 19 18 19 20 21 22 22 21 19 18 17 17 18 19 19
1 1 3 3 4 3 3 4 6 6 6 7 7 7 7 7 6 4 4 3 2 2 2 2 3 3 4 3 3 3 4 6 7 7 8 10 12 13 14 13 13 14 16 17 17 17 17 16 16 15 15 17 20 21 20 19 19 19 20 21 20 19 19 18 18 19 22 22 21 20 20 20 19 17 17 17 18 19 21 21 20 17 15 15 15 15 15
2 3 2 0 2 2 3 4 5 6 7 8 7 6 6 6 6 5 4 3 3 2 2 2 3 3 4 4 4 4 5 6 7 7 7 8 9 11 13 14 14 15 16 16 17 16 16 16 15 14 14 17 21 22 22 21 20 19 19 19 19 18 16 16 17 18 20 21 21 20 21 20 19 18 17 16 15 15 17 17 16 15 15 15 15 14 13
4 3 2 2 1 1 3 4 4 6 7 8 8 6 5 5 5 5 5 4 3 2 1 2 3 4 5 5 4 6 8 9 9 9 7 5 5 7 9 12 14 15 16 16 17 16 15 14 14 13 15 18 20 20 20 21 20 19 19 18 16 14 12 11 10 11 14 17 19 20 21 22 22 21 19 18 16 15 15 15 15 15 14 14 13 12 11
4 3 4 4 3 1 2 3 4 5 6 7 7 6 5 4 4 4 5 4 4 3 2 2 4 5 6 5 4 4 6 8 9 9 7 5 4 6 8 10 12 14 14 14 15 14 13 12 12 15 18 20 20 19 19 19 19 19 19 19 17 14 12 9 6 4 4 7 11 14 17 19 21 21 20 19 18 17 17 17 17 16 16 15 14 14 14
4 4 5 4 3 2 1 1 2 4 5 5 6 6 5 4 3 3 3 4 4 4 3 2 4 5 7 7 5 3 3 4 5 6 6 5 5 6 8 10 11 12 12 12 12 11 11 11 12 15 19 21 20 20 20 19 19 18 19 19 19 16 11 7 5 3 2 2 4 7 10 13 15 16 17 17 17 17 17 18 18 19 19 19 18 18 18
4 5 4 4 4 4 2 2 3 4 4 5 5 5 5 5 3 3 2 2 2 3 3 2 3 5 7 8 7 5 4 4 4 3 3 3 4 5 7 9 10 11 11 11 10 9 11 13 15 15 15 17 18 19 20 20 19 18 18 18 18 15 9 5 5 5 5 3 3 5 7 9 10 12 12 13 12 13 13 14 15 15 15 15 16 16 17
6 7 6 6 7 7 5 4 5 4 4 4 4 4 5 5 4 3 2 2 2 2 2 2 3 6 8 9 9 8 7 6 5 4 3 3 4 4 5 7 9 10 10 10 9 9 12 15 17 16 15 15 16 17 18 19 19 19 19 18 15 11 8 7 7 7 7 6 6 7 8 8 8 8 8 8 8 9 10 10 11 12 12 13 13 14 15
6 8 8 7 7 7 6 4 1 1 1 1 2 3 4 5 5 4 4 4 3 3 2 2 4 6 9 10 10 9 9 7 6 5 3 3 4 5 5 7 9 10 10 9 9 9 11 14 16 17 17 16 16 16 16 15 16 17 19 16 12 10 9 9 8 8 9 9 10 11 11 10 9 9 9 9 9 10 11 11 12 13 14 15 15 16 17
2 5 8 9 9 8 7 6 6 5 4 2 1 0 1 4 5 4 3 4 4 4 3 3 3 6 9 10 10 10 10 9 7 6 5 6 7 7 8 8 9 10 10 10 10 9 10 12 13 13 14 16 15 13 12 13 14 15 15 13 12 12 12 10 8 7 7 8 10 11 12 12 11 10 10 11 11 12 12 13 14 14 15 15 16 17 17
Wind_Direction
190 153 145 147 130 131 156 160 146 136 145 146 145 176 195 152 139 215 218 178 180 209 206 190 179 168 166 168 168 166 163 162 164 164 164 166 168 171 172 174 175 176 181 184 182 186 193 195 195 195 192 190 193 202 208 208 207 210 212 212 210 206 200 196 194 194 195 196 198 198 195 194 192 190 188 185 181 178 173 170 171 168 167 170 166 157 151
52 42 113 130 125 124 133 153 149 133 146 168 162 164 167 132 133 192 167 162 206 228 209 202 174 143 155 156 157 160 161 164 166 167 167 168 170 172 173 176 178 180 186 188 184 186 194 199 197 195 193 193 196 204 209 210 211 212 211 210 206 200 196 194 194 195 196 196 197 196 194 193 192 190 187 182 180 177 171 168 168 166 166 170 168 162 156
30 13 63 99 116 127 115 84 92 103 116 141 131 134 141 107 83 100 114 124 253 253 185 122 97 122 135 141 150 159 166 168 167 167 169 168 169 172 173 176 179 182 187 190 190 192 199 202 198 194 195 197 199 204 210 213 212 211 209 207 202 197 195 194 194 195 195 194 194 193 193 192 192 189 184 181 180 176 170 167 168 167 168 171 170 165 160
19 3 65 90 86 99 93 57 76 108 116 152 170 147 152 145 127 108 97 108 250 243 147 108 113 135 141 147 154 159 168 172 170 169 170 169 170 172 174 176 179 184 189 194 196 197 199 200 198 196 197 199 200 204 211 214 212 210 208 203 198 196 195 195 195 194 192 191 190 190 191 191 191 188 184 181 178 175 173 171 169 168 169 171 170 165 161
22 340 115 117 85 82 80 291 187 146 145 181 158 104 151 158 143 128 142 202 203 160 130 124 131 151 162 171 171 168 170 172 172 172 172 172 174 177 180 183 185 189 195 198 198 198 199 199 199 200 202 202 201 204 211 214 210 207 203 199 197 196 196 198 197 193 191 191 190 189 191 192 192 188 183 181 179 177 175 172 170 169 169 170 169 165 163
64 311 232 115 93 119 219 251 197 168 193 161 129 117 198 172 144 135 151 169 143 134 151 163 173 185 188 189 186 178 172 171 173 175 177 178 179 181 185 187 189 192 196 197 198 199 200 201 201 202 205 206 206 209 215 214 208 203 200 197 197 198 198 199 196 192 192 192 191 191 193 194 193 187 182 180 179 178 177 174 173 170 169 170 168 164 163
107 324 53 107 137 212 243 266 238 210 206 146 113 72 13 24 22 100 125 141 157 168 174 164 161 176 185 193 196 185 178 175 174 176 179 181 182 183 185 187 191 194 196 197 200 202 203 203 202 201 203 204 206 212 215 211 205 202 200 197 198 199 199 196 193 192 192 191 192 194 194 194 192 186 183 182 179 177 177 174 172 171 170 172 168 164 163
115 42 62 126 194 250 291 307 282 209 183 124 92 45 3 3 4 177 165 169 170 162 131 101 103 123 138 156 185 189 186 183 179 180 183 184 186 189 191 194 196 197 199 202 204 204 203 202 201 202 203 203 204 208 210 205 202 201 199 197 198 198 197 194 192 192 192 192 194 195 193 193 192 188 185 183 179 178 177 173 171 172 172 171 168 165 166
123 109 81 115 335 341 341 340 328 200 257 182 125 103 322 312 17 140 169 152 137 120 100 100 106 107 100 96 173 194 193 191 189 188 189 190 193 195 197 199 200 199 200 204 204 203 202 202 202 204 204 202 203 205 204 202 201 200 198 197 197 196 195 194 193 193 193 194 195 195 194 194 194 193 189 185 182 181 179 175 172 172 171 169 167 166 167
85 99 73 33 40 12 267 266 275 280 282 238 143 107 327 293 349 117 158 151 139 124 106 108 114 110 97 79 219 202 197 195 194 193 193 194 196 197 197 198 199 199 201 205 206 205 203 203 204 204 202 201 202 203 202 202 202 200 198 197 197 196 196 197 196 193 194 196 196 197 198 199 199 198 194 189 185 182 180 179 174 171 169 166 165 167 168
39 91 88 84 101 160 248 259 279 296 287 214 108 70 325 282 342 57 159 165 152 143 136 132 128 120 122 240 226 206 198 198 197 195 195 196 197 199 200 201 202 202 203 206 207 207 206 204 204 203 201 201 202 202 202 203 202 201 201 200 198 199 202 202 197 193 194 198 201 202 203 205 205 203 197 190 185 180 179 180 175 170 168 167 165 166 168
41 88 81 133 171 244 267 266 288 311 22 102 90 81 249 271 331 8 166 171 166 156 149 143 142 159 182 220 229 212 199 198 200 198 198 199 199 200 201 202 203 204 205 206 208 208 208 206 204 203 201 202 203 204 204 203 205 206 206 203 199 200 202 200 196 195 195 197 203 208 208 208 208 207 200 190 183 179 177 177 175 170 167 168 167 165 167
51 79 83 78 247 266 273 285 306 325 17 69 94 185 231 277 332 340 175 174 171 163 158 160 179 195 195 216 232 212 198 197 201 202 203 203 203 203 202 202 203 204 206 209 210 211 211 210 206 203 202 203 205 206 206 206 209 211 207 201 198 200 200 197 195 195 193 191 199 210 212 210 208 206 200 191 183 179 176 175 174 171 168 169 169 167 167
51 87 106 80 283 267 279 304 325 354 43 96 186 203 210 300 338 340 186 180 177 173 176 182 191 202 204 225 255 211 199 197 198 199 202 203 203 204 204 204 207 207 207 208 209 210 211 211 210 207 205 207 208 207 209 211 212 211 204 199 200 201 200 198 197 195 193 192 195 204 210 211 209 204 198 190 184 181 178 177 176 174 171 171 171 170 168
82 62 64 70 212 261 304 320 340 30 93 182 180 146 112 64 18 16 175 187 185 185 191 194 198 216 220 236 267 206 197 197 197 199 202 203 202 202 202 204 208 209 208 207 208 209 209 209 210 208 205 206 208 209 211 212 212 210 205 202 203 202 201 202 199 195 196 196 193 196 205 211 209 204 195 187 185 184 182 181 180 178 176 175 176 175 172
106 91 80 183 204 260 325 354 136 112 91 138 127 100 85 67 50 43 64 195 197 199 201 202 206 224 234 240 236 196 191 195 198 200 202 204 204 204 204 204 206 208 209 208 207 208 209 209 210 209 207 209 210 211 212 212 211 210 207 204 204 204 205 204 199 196 197 197 192 193 202 208 207 201 193 185 184 187 186 186 185 183 180 180 179 179 176
148 172 208 219 232 283 354 63 108 100 84 96 100 86 81 70 55 43 34 342 214 212 211 209 211 221 233 242 228 201 196 197 199 201 203 204 205 205 205 206 207 208 209 208 206 206 208 210 212 212 212 215 215 213 212 212 212 210 206 204 204 206 206 203 197 195 196 194 192 194 202 206 204 199 193 187 186 188 188 189 189 187 184 181 180 179 178
344 84 230 268 318 352 48 82 99 97 89 89 88 79 77 72 57 44 34 11 285 230 219 215 216 220 226 231 224 208 200 198 199 202 203 204 206 207 206 207 207 206 206 207 208 207 207 209 211 211 211 215 218 216 213 213 212 209 205 204 205 207 204 199 195 195 194 192 193 197 202 205 204 201 197 192 190 190 189 189 191 190 186 181 177 178 179
71 73 301 313 341 0 43 82 100 99 90 88 88 78 68 64 53 41 32 349 319 276 237 228 226 225 225 224 219 209 203 200 201 203 204 205 206 208 208 207 206 206 206 207 209 209 208 209 210 209 208 212 217 217 216 214 212 208 205 206 206 205 200 196 194 195 194 193 195 199 203 203 202 201 198 195 194 192 191 190 190 189 188 184 179 180 182
101 209 258 280 305 342 50 95 105 99 94 92 87 79 68 59 42 25 15 253 283 293 276 254 240 231 227 225 221 213 207 205 204 205 207 208 207 207 208 208 207 207 208 209 209 210 209 209 209 207 208 212 215 216 218 217 212 207 206 207 205 202 198 195 195 196 196 197 199 201 203 202 200 198 196 195 197 197 196 196 194 192 191 188 185 184 186
9 245 256 277 314 330 85 114 109 95 92 86 79 85 82 56 24 351 318 267 275 288 298 284 251 237 231 228 224 218 212 209 207 207 207 207 206 205 206 207 208 208 209 209 209 209 209 209 208 207 208 212 214 215 217 216 212 208 207 205 203 201 198 196 196 197 199 202 205 205 202 200 198 197 197 198 199 200 201 201 201 202 201 196 189 187 187
345 243 228 163 134 230 224 146 116 93 74 61 63 82 92 62 17 348 325 290 280 289 302 306 273 248 238 230 223 219 216 213 210 207 206 205 204 204 204 205 207 208 209 210 210 209 209 210 209 208 209 211 212 214 216 215 212 210 206 203 202 202 200 198 198 200 201 204 207 207 203 199 196 195 196 197 198 199 201 202 203 206 206 200 192 187 185
217 261 260 197 81 332 267 109 81 51 29 31 39 52 61 37 9 356 344 308 283 289 301 311 300 265 243 231 223 218 215 212 208 204 203 203 202 202 203 204 205 206 207 209 209 209 210 211 211 211 211 211 213 214 214 213 213 211 206 203 202 203 201 200 201 202 204 205 205 205 203 200 197 195 195 194 193 194 197 201 202 203 199 193 192 193 192
269 354 7 342 342 7 45 63 46 27 15 13 12 1 346 349 355 4 5 342 306 285 295 307 309 280 248 234 225 217 211 207 203 199 199 200 201 202 203 203 205 206 207 207 208 209 211 212 213 213 212 212 213 213 212 212 213 212 208 207 206 205 202 202 203 205 206 206 205 204 202 200 199 198 197 195 191 190 192 196 200 202 201 199 203 210 214
326 348 9 333 304 336 81 65 43 17 351 353 7 351 326 341 1 20 22 8 353 295 290 300 302 289 257 236 227 220 215 212 208 205 207 210 209 207 206 205 206 208 208 208 209 210 212 214 215 215 214 213 213 212 213 213 212 210 210 211 210 207 204 204 205 207 208 208 207 205 202 200 200 201 200 197 192 190 192 195 198 202 206 208 210 218 226
342 341 1 348 274 227 213 233 251 305 310 313 3 2 356 13 26 40 40 35 42 34 326 301 287 276 259 242 231 224 221 217 211 207 209 211 210 209 208 208 208 210 211 212 212 213 215 216 217 216 216 215 214 213 213 212 210 209 211 212 213 212 210 208 208 209 210 211 210 206 204 203 203 203 201 198 195 195 196 198 200 202 205 205 208 217 229
12 13 338 285 265 230 220 240 254 256 205 187 3 32 49 53 56 66 49 65 80 78 56 335 292 276 256 244 233 223 221 217 210 207 208 210 211 211 211 211 212 213 215 216 214 215 217 218 218 217 217 215 213 211 210 209 210 212 212 211 211 214 215 214 214 214 214 214 211 207 205 205 205 203 200 198 199 202 206 207 207 206 206 208 213 221 230
64 65 251 256 262 238 203 163 150 157 149 145 131 92 82 73 76 78 4 116 124 113 108 111 86 286 262 246 235 228 224 219 214 213 213 215 216 214 211 211 213 215 216 216 215 215 217 219 219 217 215 213 212 210 209 209 212 214 212 209 209 212 215 217 218 219 219 217 213 208 206 205 204 203 201 201 204 208 213 217 219 218 219 221 224 228 230
9 122 188 194 188 260 214 166 157 158 155 153 148 125 103 81 81 95 175 209 160 153 143 144 158 188 239 242 238 236 229 219 213 213 214 216 218 218 215 213 213 214 215 215 213 212 215 218 218 216 214 213 213 211 209 209 211 212 211 211 211 212 214 217 220 222 221 217 212 208 206 205 203 202 202 205 208 213 217 222 226 228 230 231 231 231 228
324 314 244 222 220 242 224 185 170 165 162 165 171 153 118 69 35 78 137 206 201 199 195 186 193 200 207 223 234 239 232 218 204 201 205 208 213 218 221 219 214 211 211 213 212 212 214 216 216 215 214 213 211 209 207 208 210 210 211 214 217 220 220 221 221 221 218 214 210 208 206 204 202 202 204 207 211 217 222 226 229 232 233 234 234 232 227
290 307 305 264 233 216 198 181 174 173 169 169 176 177 152 38 348 355 171 195 196 187 182 198 213 216 219 221 225 230 225 213 202 202 206 206 205 211 222 227 224 217 214 214 214 214 215 216 216 216 217 215 211 209 209 210 210 210 211 214 219 224 226 224 221 218 215 212 209 207 205 203 202 203 206 210 214 220 225 229 231 231 230 229 229 226 221
186 164 125 157 172 169 166 166 169 169 163 158 163 168 159 126 342 328 289 229 182 157 130 83 248 237 235 232 229 225 220 212 210 215 218 218 218 218 222 228 230 227 224 223 221 219 219 219 218 219 219 216 212 211 212 212 212 215 216 216 218 222 222 221 219 217 214 211 208 205 202 202 204 206 210 214 219 224 228 229 226 223 220 220 218 213 209
179 142 118 127 143 145 144 144 148 152 151 152 159 162 159 152 169 309 279 235 193 164 118 46 330 256 242 240 235 228 220 215 216 220 224 227 231 230 228 227 229 229 227 225 223 222 222 222 222 221 219 215 212 213 214 214 216 218 216 213 213 217 219 219 219 217 214 209 206 203 202 204 208 211 214 219 224 228 228 223 216 211 211 210 206 202 204
186 144 113 112 121 123 124 124 125 133 145 154 163 173 179 182 188 210 213 211 204 186 161 92 312 270 254 249 242 233 229 227 224 225 229 233 238 239 234 228 228 228 226 223 220 219 220 223 225 223 218 213 212 214 216 217 218 215 208 202 204 213 220 222 220 216 211 206 203 203 206 210 213 217 221 224 226 223 218 212 207 207 208 208 203 200 204
138 122 105 95 84 81 89 90 76 63 57 117 160 176 180 175 182 196 187 178 193 193 175 166 219 259 260 256 249 242 241 239 235 236 239 241 245 246 238 228 224 224 222 219 218 219 221 224 226 224 218 213 212 214 216 214 210 204 198 195 200 210 219 222 219 214 209 205 204 208 212 215 220 225 226 222 217 212 208 204 204 206 210 211 208 206 208
95 90 87 76 59 54 58 55 48 38 22 31 127 163 174 172 177 189 191 168 149 142 146 152 159 190 283 279 268 259 253 249 246 244 244 245 247 246 238 229 224 221 218 215 216 219 223 225 225 222 217 213 211 214 214 209 200 196 195 196 201 209 215 216 215 211 207 206 209 214 218 224 231 230 221 211 205 204 203 203 206 210 213 215 215 215 217
74 57 57 51 42 40 39 41 47 43 32 55 117 142 158 170 173 178 181 158 133 114 94 77 30 318 293 276 265 259 255 252 249 247 246 246 245 240 234 228 223 220 218 216 215 217 220 221 220 217 214 211 211 212 208 201 197 195 192 192 199 207 209 209 211 210 207 208 213 219 226 231 228 217 206 202 203 205 206 210 216 220 222 222 221 224 227
79 62 48 40 42 45 48 55 56 52 51 69 103 135 150 164 179 182 186 320 338 348 347 336 315 298 279 255 243 245 248 248 246 244 243 245 244 239 233 229 225 223 221 219 217 214 212 211 212 212 211 212 214 211 201 195 197 194 184 183 196 207 207 208 212 212 208 208 213 219 222 220 212 206 206 209 210 211 214 222 228 230 230 231 233 235 238
97 90 63 50 48 46 50 56 48 34 39 55 62 148 169 179 208 252 283 290 290 290 291 286 281 277 266 247 241 243 243 243 244 245 244 243 242 237 233 231 230 229 227 223 220 215 208 206 208 208 208 210 211 203 191 188 190 185 177 181 195 202 203 207 212 211 209 209 211 212 212 210 209 211 216 216 214 217 224 229 231 233 236 239 243 245 246
94 101 84 68 55 41 37 34 17 9 16 23 13 352 297 267 267 275 285 285 280 274 270 265 262 264 258 246 243 246 247 246 248 249 246 241 236 231 229 227 226 227 227 225 221 214 207 203 201 200 201 202 197 186 182 185 185 182 182 191 199 201 204 210 211 209 209 211 212 211 212 214 216 219 221 220 221 227 231 231 233 237 243 249 251 251 251
86 82 82 71 54 42 32 23 19 22 23 17 10 6 346 315 305 307 305 292 280 279 279 266 228 208 219 218 224 236 243 243 242 242 241 237 232 228 225 221 218 217 218 218 214 207 201 199 199 202 205 201 188 179 181 188 191 193 200 204 204 204 208 213 211 209 211 215 216 217 219 221 222 224 226 230 234 237 238 238 240 244 247 250 251 249 249
85 57 98 87 56 44 46 42 34 35 40 32 20 13 1 346 331 324 321 314 289 287 301 138 139 145 158 182 205 219 224 222 219 219 223 228 231 229 222 215 210 208 208 207 205 201 199 201 205 210 210 200 186 181 183 186 190 197 202 201 200 205 213 217 214 214 216 219 222 224 225 227 228 231 234 239 243 243 240 238 239 244 248 251 252 253 255
75 8 123 90 53 36 50 48 31 24 28 29 28 26 19 9 357 346 350 11 36 57 80 106 125 138 144 162 192 200 195 191 193 199 207 215 222 226 224 217 207 201 199 201 202 202 202 205 208 209 207 199 189 184 181 181 185 189 187 184 187 200 213 219 219 219 220 222 225 226 227 228 231 234 239 241 242 240 236 235 240 248 255 259 260 260 259
85 160 135 90 41 25 39 31 18 14 17 18 21 27 29 25 19 13 19 31 39 45 79 106 120 128 131 135 152 170 176 180 185 191 197 204 210 216 220 217 209 198 194 197 201 202 201 202 202 203 205 203 195 185 178 178 183 186 185 188 198 211 220 226 228 228 227 227 226 225 226 227 230 237 243 243 240 236 234 236 242 251 257 261 263 261 257
161 155 139 103 332 349 10 12 14 21 25 26 29 32 31 33 36 33 30 34 39 42 72 96 100 104 114 124 141 165 178 185 189 193 197 202 207 209 209 209 207 200 192 192 196 199 199 200 205 208 205 198 192 186 182 184 190 194 198 205 214 220 224 229 233 234 234 234 232 231 230 231 234 240 244 242 240 238 237 239 246 253 258 262 265 266 264
208 205 183 173 188 333 342 348 8 27 31 35 42 46 39 34 37 35 31 34 40 44 75 100 101 103 109 120 146 176 186 191 196 201 206 215 223 215 204 202 203 201 194 193 199 203 204 208 216 212 193 181 182 186 188 191 197 201 202 205 211 213 211 214 221 228 235 239 240 239 238 238 240 244 247 247 246 246 244 245 250 255 257 259 259 259 260
187 201 189 171 160 179 302 327 2 30 36 37 44 53 54 43 31 25 20 22 27 37 67 109 116 117 116 117 128 161 180 185 192 200 206 214 226 222 207 198 197 199 199 199 203 208 211 214 211 198 183 178 181 187 190 192 196 196 195 199 205 205 197 193 192 191 220 242 245 244 243 241 241 243 246 247 247 247 247 250 254 257 257 257 256 257 260
180 205 200 181 170 177 235 1 33 38 34 32 42 54 58 54 43 31 23 18 21 29 45 95 124 129 129 127 125 135 156 165 176 190 197 200 206 212 207 198 194 197 200 199 200 207 213 207 192 182 182 185 190 192 193 194 195 195 197 201 203 196 188 191 202 190 162 201 243 251 253 250 246 245 245 246 248 249 252 255 258 260 261 262 263 265 268
191 207 200 178 179 191 173 97 84 65 43 39 49 59 61 61 58 47 33 29 36 37 41 74 127 136 135 133 133 139 150 155 157 169 188 197 201 204 206 202 197 196 198 198 197 199 200 193 182 174 178 186 194 198 201 203 204 206 205 200 192 184 183 206 230 220 203 200 224 250 258 257 252 248 245 244 244 247 250 252 255 257 259 261 263 266 268
198 205 205 197 198 201 182 126 97 81 62 54 60 64 61 60 64 67 66 69 66 56 56 106 145 147 144 143 147 153 157 158 161 170 192 215 213 202 198 201 201 199 198 198 196 195 196 197 194 190 188 191 196 202 207 212 215 214 207 195 186 187 203 224 229 226 227 233 240 243 243 241 237 237 237 236 238 243 248 252 255 258 260 263 264 266 268
213 213 204 195 196 200 198 199 233 297 332 18 60 76 64 52 54 70 80 75 68 70 87 133 153 155 155 158 162 162 156 157 167 179 185 196 198 189 182 190 198 200 200 200 198 196 197 199 200 202 207 212 217 220 220 220 215 206 198 195 200 212 220 223 230 239 248 254 255 253 249 245 239 237 238 242 247 251 256 261 264 267 269 271 272 273 275
158 187 187 193 206 216 226 249 268 268 269 292 308 158 77 39 37 51 76 83 83 93 109 132 155 163 166 168 168 162 154 154 160 164 162 166 173 171 167 173 183 190 193 196 196 193 191 192 198 207 215 219 220 218 208 195 185 182 186 198 213 219 217 218 226 236 240 243 247 249 250 250 246 244 247 252 256 259 263 268 271 273 275 276 277 278 279